ITY1428 LIMF-LIRF

Flight info

Callsign ITY1428
Flight time 0h 56m
Altitude 37000
Route LAGEN1W LAGEN L50 ANAKI/N0434F370 DCT BAKRO DCT ELB/N0423F360 DCT ELKAP ELKAP3A
Aircraft A320/M-SDE3FGHIRWY/LB1

Departure

Time 2026-05-06 10:06
Airport Turin Airport (LIMF)

Arrival

Time 2026-05-06 11:03
Airport Rome–Fiumicino Leonardo da Vinci International Airport (LIRF)
Time Latitude Longitude Altitude Speed Heading
2026-05-06 09:18 45.19222 7.64534 986 ft 0 kts 257°
2026-05-06 09:58 45.19224 7.64545 992 ft 4 kts 257°
2026-05-06 09:58 45.19230 7.64582 986 ft 4 kts 257°
2026-05-06 09:58 45.19236 7.64618 990 ft 2 kts 257°
2026-05-06 09:59 45.19243 7.64649 988 ft 4 kts 230°
2026-05-06 09:59 45.19264 7.64668 993 ft 4 kts 185°
2026-05-06 09:59 45.19274 7.64669 993 ft 0 kts 182°
2026-05-06 10:03 45.19267 7.64668 1013 ft 3 kts 182°
2026-05-06 10:03 45.19221 7.64666 988 ft 10 kts 182°
2026-05-06 10:04 45.19132 7.64660 986 ft 16 kts 183°
2026-05-06 10:04 45.19009 7.64651 989 ft 18 kts 182°
2026-05-06 10:04 45.18877 7.64643 986 ft 19 kts 183°
2026-05-06 10:04 45.18741 7.64630 985 ft 20 kts 184°
2026-05-06 10:05 45.18630 7.64682 987 ft 16 kts 124°
2026-05-06 10:05 45.18624 7.64844 979 ft 15 kts 80°
2026-05-06 10:05 45.18669 7.64875 987 ft 0 kts
2026-05-06 10:06 45.18709 7.64877 983 ft 32 kts
2026-05-06 10:06 45.19194 7.64907 985 ft 104 kts
2026-05-06 10:06 45.20117 7.64966 1018 ft 155 kts
2026-05-06 10:06 45.21153 7.65051 1747 ft 146 kts
2026-05-06 10:07 45.22179 7.65147 2386 ft 149 kts
2026-05-06 10:07 45.24138 7.65261 3216 ft 174 kts
2026-05-06 10:07 45.25421 7.65329 3556 ft 195 kts
2026-05-06 10:08 45.26790 7.65979 3812 ft 223 kts 41°
2026-05-06 10:08 45.27591 7.67941 4236 ft 246 kts 81°
2026-05-06 10:08 45.27488 7.70458 4840 ft 266 kts 104°
2026-05-06 10:08 45.26943 7.73007 5832 ft 273 kts 111°
2026-05-06 10:09 45.26227 7.75754 6926 ft 277 kts 112°
2026-05-06 10:09 45.25559 7.78346 7823 ft 282 kts 111°
2026-05-06 10:09 45.24725 7.80882 8693 ft 286 kts 126°
2026-05-06 10:09 45.23525 7.83158 9584 ft 290 kts 129°
2026-05-06 10:10 45.22307 7.85497 10218 ft 305 kts 128°
2026-05-06 10:10 45.21023 7.88032 10577 ft 326 kts 128°
2026-05-06 10:10 45.19487 7.90426 11243 ft 331 kts 145°
2026-05-06 10:10 45.17515 7.92101 12050 ft 332 kts 154°
2026-05-06 10:11 45.15476 7.93649 12880 ft 334 kts 155°
2026-05-06 10:11 45.13407 7.95198 13716 ft 338 kts 155°
2026-05-06 10:11 45.11316 7.96753 14480 ft 341 kts 155°
2026-05-06 10:11 45.09181 7.98338 15251 ft 343 kts 156°
2026-05-06 10:12 45.07062 7.99910 15999 ft 345 kts 156°
2026-05-06 10:12 45.04930 8.01496 16725 ft 347 kts 156°
2026-05-06 10:12 45.02785 8.03100 17457 ft 350 kts 156°
2026-05-06 10:12 45.00623 8.04718 18186 ft 353 kts 156°
2026-05-06 10:13 44.98443 8.06343 18808 ft 356 kts 157°
2026-05-06 10:13 44.96245 8.07976 19420 ft 359 kts 158°
2026-05-06 10:13 44.94025 8.09622 20050 ft 361 kts 158°
2026-05-06 10:13 44.91792 8.11281 20659 ft 364 kts 158°
2026-05-06 10:14 44.89512 8.12974 21281 ft 367 kts 159°
2026-05-06 10:14 44.87239 8.14660 21891 ft 371 kts 159°
2026-05-06 10:14 44.84948 8.16359 22500 ft 374 kts 160°
2026-05-06 10:14 44.82638 8.18071 23114 ft 377 kts 160°
2026-05-06 10:15 44.80312 8.19793 23658 ft 379 kts 160°
2026-05-06 10:15 44.77965 8.21529 24141 ft 382 kts 160°
2026-05-06 10:15 44.75607 8.23272 24636 ft 384 kts 160°
2026-05-06 10:15 44.73232 8.25022 25108 ft 386 kts 160°
2026-05-06 10:16 44.70843 8.26778 25566 ft 389 kts 160°
2026-05-06 10:16 44.68444 8.28543 26007 ft 391 kts 160°
2026-05-06 10:16 44.66024 8.30321 26456 ft 394 kts 160°
2026-05-06 10:16 44.63592 8.32113 26871 ft 396 kts 161°
2026-05-06 10:17 44.61142 8.33918 27267 ft 399 kts 160°
2026-05-06 10:17 44.58676 8.35731 27669 ft 401 kts 161°
2026-05-06 10:17 44.56200 8.37542 28089 ft 403 kts 161°
2026-05-06 10:17 44.53706 8.39359 28494 ft 405 kts 161°
2026-05-06 10:18 44.51200 8.41184 28892 ft 407 kts 161°
2026-05-06 10:18 44.48678 8.43026 29280 ft 410 kts 161°
2026-05-06 10:18 44.46147 8.44877 29672 ft 412 kts 161°
2026-05-06 10:18 44.43601 8.46737 30036 ft 414 kts 161°
2026-05-06 10:19 44.41040 8.48613 30358 ft 417 kts 160°
2026-05-06 10:19 44.38564 8.50828 30669 ft 430 kts 151°
2026-05-06 10:19 44.36255 8.53529 30976 ft 435 kts 148°
2026-05-06 10:19 44.33911 8.56305 31278 ft 436 kts 148°
2026-05-06 10:20 44.31620 8.59015 31551 ft 438 kts 148°
2026-05-06 10:20 44.29263 8.61795 31928 ft 437 kts 148°
2026-05-06 10:20 44.26946 8.64525 32313 ft 436 kts 148°
2026-05-06 10:20 44.24636 8.67247 32699 ft 434 kts 148°
2026-05-06 10:21 44.23112 8.69040 32963 ft 433 kts 148°
2026-05-06 10:21 44.20807 8.71749 33350 ft 432 kts 148°
2026-05-06 10:21 44.18515 8.74437 33728 ft 431 kts 148°
2026-05-06 10:21 44.16215 8.77133 34075 ft 430 kts 148°
2026-05-06 10:22 44.13926 8.79818 34380 ft 430 kts 148°
2026-05-06 10:22 44.11639 8.82495 34650 ft 431 kts 148°
2026-05-06 10:22 44.09339 8.85177 34914 ft 431 kts 148°
2026-05-06 10:22 44.07041 8.87853 35171 ft 431 kts 148°
2026-05-06 10:23 44.04736 8.90534 35424 ft 432 kts 148°
2026-05-06 10:23 44.02399 8.93251 35673 ft 432 kts 148°
2026-05-06 10:23 44.00119 8.95903 35913 ft 433 kts 148°
2026-05-06 10:23 43.97808 8.98590 36148 ft 433 kts 147°
2026-05-06 10:24 43.95470 9.01305 36386 ft 434 kts 147°
2026-05-06 10:24 43.93152 9.03990 36609 ft 434 kts 147°
2026-05-06 10:24 43.90830 9.06676 36820 ft 435 kts 147°
2026-05-06 10:24 43.88514 9.09358 36897 ft 433 kts 147°
2026-05-06 10:25 43.83901 9.14703 36899 ft 431 kts 147°
2026-05-06 10:25 43.79296 9.20014 36900 ft 431 kts 147°
2026-05-06 10:26 43.74682 9.25313 36902 ft 431 kts 147°
2026-05-06 10:26 43.70065 9.30612 36913 ft 431 kts 147°
2026-05-06 10:27 43.65444 9.35907 36909 ft 432 kts 147°
2026-05-06 10:27 43.60821 9.41199 36906 ft 432 kts 147°
2026-05-06 10:28 43.56193 9.46478 36904 ft 432 kts 147°
2026-05-06 10:28 43.51555 9.51761 36900 ft 433 kts 147°
2026-05-06 10:29 43.46917 9.57035 36899 ft 433 kts 147°
2026-05-06 10:29 43.42258 9.62307 36902 ft 434 kts 148°
2026-05-06 10:30 43.37593 9.67588 36907 ft 435 kts 147°
2026-05-06 10:30 43.32888 9.72904 36906 ft 435 kts 147°
2026-05-06 10:31 43.28234 9.78151 36904 ft 435 kts 147°
2026-05-06 10:31 43.23517 9.83459 36910 ft 436 kts 147°
2026-05-06 10:32 43.18826 9.88722 36906 ft 436 kts 147°
2026-05-06 10:32 43.14130 9.93978 36912 ft 436 kts 147°
2026-05-06 10:33 43.09431 9.99233 36908 ft 436 kts 147°
2026-05-06 10:33 43.04735 10.04483 36910 ft 436 kts 147°
2026-05-06 10:34 43.00025 10.09740 36768 ft 443 kts 147°
2026-05-06 10:34 42.97626 10.12410 36501 ft 446 kts 147°
2026-05-06 10:34 42.95221 10.15085 36241 ft 446 kts 147°
2026-05-06 10:35 42.92820 10.17753 35973 ft 444 kts 147°
2026-05-06 10:35 42.90430 10.20405 35709 ft 442 kts 147°
2026-05-06 10:35 42.88054 10.23039 35319 ft 438 kts 147°
2026-05-06 10:35 42.85667 10.25684 34760 ft 435 kts 147°
2026-05-06 10:36 42.83326 10.28271 34209 ft 432 kts 147°
2026-05-06 10:36 42.81000 10.30832 33612 ft 429 kts 147°
2026-05-06 10:36 42.78688 10.33379 33094 ft 425 kts 147°
2026-05-06 10:36 42.76500 10.36095 32567 ft 429 kts 137°
2026-05-06 10:37 42.74720 10.39379 32008 ft 435 kts 126°
2026-05-06 10:37 42.73460 10.43142 31452 ft 441 kts 112°
2026-05-06 10:37 42.72794 10.47231 30884 ft 446 kts 99°
2026-05-06 10:37 42.72604 10.51462 30324 ft 447 kts 96°
2026-05-06 10:38 42.72444 10.55674 29722 ft 446 kts 96°
2026-05-06 10:38 42.72246 10.59865 29173 ft 441 kts 101°
2026-05-06 10:38 42.71631 10.63897 28666 ft 431 kts 112°
2026-05-06 10:38 42.70538 10.67630 28249 ft 419 kts 122°
2026-05-06 10:39 42.69066 10.71054 27798 ft 411 kts 127°
2026-05-06 10:39 42.67566 10.74331 27367 ft 407 kts 127°
2026-05-06 10:39 42.66079 10.77584 26943 ft 403 kts 127°
2026-05-06 10:39 42.64609 10.80791 26521 ft 399 kts 127°
2026-05-06 10:40 42.63149 10.83975 26104 ft 395 kts 127°
2026-05-06 10:40 42.61705 10.87123 25670 ft 392 kts 127°
2026-05-06 10:40 42.60272 10.90247 25237 ft 389 kts 127°
2026-05-06 10:40 42.58841 10.93352 24803 ft 386 kts 127°
2026-05-06 10:41 42.57420 10.96431 24347 ft 384 kts 127°
2026-05-06 10:41 42.56003 10.99505 23896 ft 382 kts 126°
2026-05-06 10:41 42.54596 11.02550 23411 ft 381 kts 126°
2026-05-06 10:41 42.53188 11.05589 22913 ft 379 kts 126°
2026-05-06 10:42 42.51796 11.08602 22460 ft 376 kts 126°
2026-05-06 10:42 42.50408 11.11595 22009 ft 374 kts 127°
2026-05-06 10:42 42.49027 11.14562 21565 ft 371 kts 126°
2026-05-06 10:42 42.47655 11.17514 21125 ft 369 kts 126°
2026-05-06 10:43 42.46271 11.20488 20675 ft 367 kts 126°
2026-05-06 10:43 42.44951 11.23438 20236 ft 367 kts 121°
2026-05-06 10:43 42.44017 11.26666 19789 ft 371 kts 108°
2026-05-06 10:44 42.43162 11.33588 18844 ft 373 kts 101°
2026-05-06 10:44 42.42777 11.37055 18381 ft 373 kts 101°
2026-05-06 10:44 42.42387 11.40540 17882 ft 374 kts 101°
2026-05-06 10:44 42.42002 11.43972 17719 ft 364 kts 101°
2026-05-06 10:45 42.41619 11.47340 17410 ft 361 kts 102°
2026-05-06 10:45 42.41235 11.50668 16900 ft 357 kts 102°
2026-05-06 10:45 42.40646 11.53883 16367 ft 347 kts 116°
2026-05-06 10:45 42.39490 11.56668 15846 ft 335 kts 132°
2026-05-06 10:46 42.36016 11.60299 14922 ft 310 kts 163°
2026-05-06 10:46 42.34018 11.61246 14562 ft 300 kts 166°
2026-05-06 10:46 42.32062 11.62151 14205 ft 294 kts 166°
2026-05-06 10:47 42.30149 11.63042 13869 ft 288 kts 166°
2026-05-06 10:47 42.28256 11.63927 13529 ft 282 kts 166°
2026-05-06 10:47 42.26427 11.64778 13263 ft 280 kts 166°
2026-05-06 10:47 42.24585 11.65613 12997 ft 278 kts 167°
2026-05-06 10:48 42.22742 11.66413 12738 ft 278 kts 168°
2026-05-06 10:48 42.22119 11.66680 12653 ft 277 kts 168°
2026-05-06 10:48 42.20905 11.67197 12492 ft 276 kts 168°
2026-05-06 10:48 42.17238 11.68755 11767 ft 277 kts 168°
2026-05-06 10:49 42.15396 11.69536 11429 ft 276 kts 168°
2026-05-06 10:49 42.12090 11.70949 10850 ft 273 kts 168°
2026-05-06 10:49 42.10284 11.71721 10516 ft 272 kts 168°
2026-05-06 10:50 42.08492 11.72491 10307 ft 266 kts 168°
2026-05-06 10:50 42.06809 11.73489 10081 ft 269 kts 147°
2026-05-06 10:50 42.05704 11.75524 9764 ft 278 kts 110°
2026-05-06 10:50 42.05599 11.78098 9296 ft 280 kts 79°
2026-05-06 10:51 42.06089 11.80634 8748 ft 280 kts 73°
2026-05-06 10:51 42.06288 11.81478 8575 ft 280 kts 72°
2026-05-06 10:51 42.07341 11.85560 7736 ft 276 kts 70°
2026-05-06 10:51 42.07981 11.88017 7267 ft 273 kts 70°
2026-05-06 10:52 42.08592 11.90419 6817 ft 270 kts 72°
2026-05-06 10:52 42.09187 11.92831 6349 ft 266 kts 72°
2026-05-06 10:52 42.09754 11.95185 5942 ft 263 kts 73°
2026-05-06 10:52 42.10310 11.97533 5570 ft 263 kts 74°
2026-05-06 10:53 42.10862 11.99880 5199 ft 263 kts 74°
2026-05-06 10:53 42.11216 12.02254 4829 ft 253 kts 93°
2026-05-06 10:53 42.10933 12.04469 4557 ft 229 kts 121°
2026-05-06 10:53 42.09958 12.05986 4381 ft 208 kts 155°
2026-05-06 10:54 42.08609 12.06395 4251 ft 197 kts 191°
2026-05-06 10:54 42.07407 12.05611 4121 ft 195 kts 227°
2026-05-06 10:54 42.06838 12.03949 4027 ft 200 kts 263°
2026-05-06 10:54 42.07164 12.02102 3958 ft 212 kts 297°
2026-05-06 10:55 42.08199 12.00709 3957 ft 222 kts 328°
2026-05-06 10:55 42.09742 12.00227 3958 ft 239 kts
2026-05-06 10:55 42.11272 12.01070 3964 ft 243 kts 44°
2026-05-06 10:55 42.12143 12.02950 3961 ft 236 kts 82°
2026-05-06 10:56 42.12073 12.05103 3965 ft 232 kts 117°
2026-05-06 10:56 42.11161 12.06810 3960 ft 224 kts 146°
2026-05-06 10:56 42.09900 12.08184 3959 ft 227 kts 146°
2026-05-06 10:56 42.08714 12.09480 3953 ft 227 kts 145°
2026-05-06 10:57 42.07487 12.10827 3957 ft 228 kts 146°
2026-05-06 10:57 42.06249 12.12204 3950 ft 229 kts 142°
2026-05-06 10:57 42.05155 12.13777 3953 ft 231 kts 136°
2026-05-06 10:57 42.04086 12.15358 3789 ft 224 kts 137°
2026-05-06 10:58 42.03062 12.16870 3661 ft 214 kts 136°
2026-05-06 10:58 42.02062 12.18324 3531 ft 210 kts 141°
2026-05-06 10:58 42.00844 12.19326 3265 ft 203 kts 165°
2026-05-06 10:58 41.99508 12.19889 2987 ft 199 kts 166°
2026-05-06 10:59 41.98210 12.20433 2728 ft 191 kts 166°
2026-05-06 10:59 41.96959 12.20959 2476 ft 186 kts 165°
2026-05-06 10:59 41.95740 12.21471 2260 ft 182 kts 165°
2026-05-06 10:59 41.94539 12.21976 2002 ft 180 kts 165°
2026-05-06 11:00 41.93356 12.22474 1734 ft 175 kts 164°
2026-05-06 11:00 41.92245 12.22944 1512 ft 160 kts 163°
2026-05-06 11:00 41.91220 12.23367 1264 ft 149 kts 163°
2026-05-06 11:00 41.90272 12.23753 1079 ft 136 kts 162°
2026-05-06 11:01 41.89372 12.24138 927 ft 135 kts 162°
2026-05-06 11:01 41.88472 12.24521 802 ft 136 kts 160°
2026-05-06 11:01 41.87541 12.24910 668 ft 144 kts 160°
2026-05-06 11:01 41.86580 12.25316 481 ft 144 kts 161°
2026-05-06 11:02 41.85637 12.25712 270 ft 142 kts 163°
2026-05-06 11:02 41.84709 12.26104 106 ft 138 kts 163°
2026-05-06 11:02 41.83819 12.26471 21 ft 122 kts 157°
2026-05-06 11:02 41.83152 12.26757 10 ft 80 kts 163°
2026-05-06 11:03 41.82677 12.26955 14 ft 64 kts 162°
2026-05-06 11:03 41.82313 12.27109 9 ft 44 kts 163°
2026-05-06 11:03 41.81873 12.27088 11 ft 33 kts 196°
2026-05-06 11:04 41.81654 12.27059 12 ft 31 kts 165°
2026-05-06 11:04 41.81453 12.27143 13 ft 30 kts 162°
2026-05-06 11:04 41.81261 12.27225 12 ft 29 kts 162°
2026-05-06 11:04 41.81073 12.27304 12 ft 27 kts 163°
2026-05-06 11:05 41.80901 12.27348 13 ft 24 kts 187°
2026-05-06 11:05 41.80739 12.27312 13 ft 22 kts 191°
2026-05-06 11:05 41.80639 12.27161 14 ft 24 kts 248°
2026-05-06 11:05 41.80577 12.26945 13 ft 26 kts 250°
2026-05-06 11:06 41.80517 12.26719 17 ft 23 kts 250°
2026-05-06 11:06 41.80466 12.26535 15 ft 21 kts 250°
2026-05-06 11:06 41.80397 12.26369 15 ft 21 kts 200°
2026-05-06 11:06 41.80257 12.26409 16 ft 21 kts 173°
2026-05-06 11:07 41.80122 12.26348 14 ft 21 kts 205°
2026-05-06 11:07 41.79985 12.26265 14 ft 22 kts 204°
2026-05-06 11:07 41.79846 12.26179 14 ft 20 kts 206°
2026-05-06 11:07 41.79765 12.26108 14 ft 14 kts 244°
2026-05-06 11:08 41.79794 12.25984 14 ft 15 kts 295°
2026-05-06 11:08 41.79838 12.25862 14 ft 15 kts 295°
2026-05-06 11:08 41.79832 12.25787 15 ft 8 kts 212°
2026-05-06 11:08 41.79772 12.25749 15 ft 11 kts 205°
2026-05-06 11:09 41.79755 12.25689 16 ft 6 kts 295°
2026-05-06 11:09 41.79764 12.25664 15 ft 1 kts 296°